EW8845 Weather Reports


time (UTC)temp
C
wind
direction
speed
KPH
gust
KPH
rain 1hr
cm
rain 24hr
cm
rain mn
cm
humidity
%
barometer
mb
20260506001548 10 31 3.2 14.5 0.00 0.61 0.00 78 1007.0
20260506000023 10 42 3.2 9.7 0.00 0.61 0.00 79 1007.1
20260505234606 10 26 4.8 9.7 0.00 0.94 0.00 79 1007.4
20260505233031 10 12 3.2 9.7 0.00 0.94 0.00 79 1007.4
20260505231507 10 5 1.6 3.2 0.00 0.94 0.00 86 1007.4
20260505230042 10 348 0.0 3.2 0.00 0.94 0.00 87 1007.6
20260505224519 10 22 0.0 8.0 0.00 1.57 0.00 86 1007.5
20260505223056 10 24 0.0 4.8 0.00 1.57 0.00 88 1007.7
20260505221530 10 342 0.0 4.8 0.00 1.57 0.00 89 1007.7
20260505220004 10 342 1.6 4.8 0.00 1.57 0.00 89 1007.7
20260505214549 10 344 0.0 3.2 0.00 1.65 1.57 89 1007.9
20260505213017 10 340 0.0 4.8 0.00 1.65 1.57 89 1008.0
20260505211609 10 338 0.0 3.2 0.00 1.65 1.57 89 1008.0
20260505210031 10 337 0.0 1.6 0.00 1.65 1.57 88 1008.1
20260505204507 10 337 0.0 3.2 0.00 1.65 1.57 89 1008.0
20260505203044 10 338 0.0 1.6 0.00 1.65 1.57 89 1008.1
20260505201518 10 340 0.0 1.6 0.00 1.65 1.57 89 1008.0
20260505200055 10 351 1.6 6.4 0.00 1.65 1.57 88 1008.1
20260505194529 11 5 0.0 8.0 0.00 1.65 1.57 87 1008.0
20260505193005 11 345 3.2 8.0 0.00 1.65 1.57 86 1008.0
20260505191544 11 344 0.0 4.8 0.00 1.65 1.57 85 1007.9
20260505190031 11 15 0.0 4.8 0.00 1.65 1.57 84 1007.7
20260505184557 11 342 1.6 8.0 0.00 1.65 1.57 84 1007.7
20260505183038 11 355 1.6 8.0 0.00 1.65 1.57 83 1007.8
20260505181509 11 349 3.2 9.7 0.00 1.65 1.57 84 1007.7
20260505180046 11 360 1.6 14.5 0.00 1.65 1.57 84 1007.7
20260505174521 11 334 3.2 12.9 0.00 1.65 1.57 82 1007.7
20260505173058 11 338 3.2 16.1 0.00 1.65 1.57 82 1007.8
20260505171535 11 336 4.8 14.5 0.00 1.65 1.57 82 1008.0
20260505170015 11 329 4.8 14.5 0.00 1.65 1.57 81 1008.0
20260505164610 11 338 4.8 14.5 0.00 1.65 1.57 80 1008.0
20260505163022 12 336 3.2 8.0 0.00 1.65 1.57 78 1008.0
20260505161615 12 15 3.2 12.9 0.00 1.65 1.57 77 1008.0
20260505153040 12 17 0.0 8.0 0.00 1.65 1.57 78 1008.4
20260505151510 12 5 1.6 9.7 0.00 1.65 1.57 77 1008.5
20260505124501 11 5 3.2 12.9 0.00 1.65 1.57 79 1009.4
20260505123043 11 31 3.2 14.5 0.00 1.65 1.57 79 1009.4
20260505121513 11 9 4.8 16.1 0.00 1.65 1.57 80 1009.5
20260505114520 10 37 3.2 8.0 0.00 1.65 1.57 85 1009.7
20260505113059 10 33 1.6 8.0 0.00 1.65 1.57 85 1009.7
20260505111535 10 35 0.0 8.0 0.00 1.65 1.57 86 1009.8
20260505101546 8 350 4.8 14.5 0.00 1.65 1.57 85 1010.1
20260505100027 8 347 3.2 12.9 0.00 1.65 1.57 84 1010.1
20260505094600 8 336 3.2 14.5 0.00 1.65 1.57 84 1010.1
20260505093035 9 347 3.2 12.9 0.00 1.65 1.57 85 1010.2
20260505091511 8 5 1.6 8.0 0.00 1.65 1.57 85 1010.3
20260505090047 8 343 3.2 8.0 0.00 1.65 1.57 85 1010.4
20260505084526 8 335 3.2 16.1 0.00 1.65 1.57 87 1010.2
20260505083059 8 350 3.2 9.7 0.00 1.65 1.57 86 1010.3
20260505081541 8 20 1.6 9.7 0.00 1.65 1.57 87 1010.4
20260505080003 8 5 0.0 12.9 0.00 1.65 1.57 87 1010.5
20260505074540 8 347 3.2 9.7 0.00 1.65 1.57 87 1010.5
20260505073015 8 344 0.0 8.0 0.00 1.65 1.57 89 1010.4
20260505071555 8 26 0.0 8.0 0.00 1.65 1.57 88 1010.4
20260505070022 7 355 1.6 12.9 0.00 1.65 1.57 88 1010.4
20260505064604 7 340 4.8 12.9 0.00 1.65 1.57 88 1010.3
20260505063029 7 342 4.8 12.9 0.00 1.65 1.57 89 1010.3
20260505061509 7 355 4.8 14.5 0.00 1.65 1.57 90 1010.3
20260505060039 8 348 1.6 14.5 0.00 1.65 1.57 91 1010.3
20260505054509 7 355 1.6 12.9 0.00 1.65 1.57 91 1010.4
20260505053056 7 355 1.6 9.7 0.00 1.65 1.57 91 1010.3
20260505051617 7 15 1.6 12.9 0.00 1.65 1.57 91 1010.3
20260505041530 7 32 0.0 3.2 0.05 1.65 1.57 92 1010.3
20260505040006 7 20 1.6 6.4 0.10 1.65 1.57 92 1010.3
20260505034538 8 32 0.0 4.8 0.10 1.65 1.55 92 1010.4
20260505033013 8 23 0.0 3.2 0.10 1.63 1.55 92 1010.4
20260505031548 8 9 0.0 3.2 0.08 1.60 1.52 92 1010.4
20260505030027 8 29 1.6 9.7 0.08 1.55 1.45 92 1010.4
20260505024601 8 360 0.0 8.0 0.08 1.55 1.42 92 1010.5
20260505023035 8 5 1.6 8.0 0.05 1.52 1.42 92 1010.6
20260505021511 7 29 1.6 12.9 0.05 1.50 1.42 91 1010.6
20260505020046 8 341 3.2 12.9 0.05 1.45 1.40 92 1010.7
20260505014520 8 322 1.6 12.9 0.03 1.42 1.37 92 1010.7
20260505013058 8 340 0.0 12.9 0.08 1.42 1.37 91 1010.7
20260505011536 8 355 3.2 12.9 0.30 1.42 1.37 91 1010.7
20260505010009 8 355 3.2 8.0 0.38 1.42 1.37 91 1010.8
20260505004545 8 36 3.2 9.7 0.48 1.42 1.37 91 1010.9
20260505003020 8 333 0.0 12.9 0.51 1.37 1.30 91 1011.0